Regional Weather Roundup
Issued by NWS Jackson, KY

Home | Current Version | Previous Version | Text Only | Print | Product List | Glossary Off
Versions: 1 2 3 4 5 6 7 8 9 10 11 12 13 14 15 16 17 18 19 20 21 22 23 24 25 26 27

000
ASUS43 KJKL 192310
RWRJKL

EAST KENTUCKY HOURLY WEATHER ROUNDUP
NATIONAL WEATHER SERVICE JACKSON KY
600 PM EST SUN NOV 19 2017

NOTE: "FAIR" INDICATES FEW OR NO CLOUDS BELOW 12,000 FEET WITH
NO SIGNIFICANT WEATHER AND/OR OBSTRUCTIONS TO VISIBILITY.

* THESE REPORTS ARE NOT UNDER NWS QUALITY CONTROL AND MAY NOT
  REPORT WEATHER SUCH AS PRECIPITATION AND FOG.

KYZ079-080-083-085-087-088-110-112-115-119-120-200000
...EASTERN KENTUCKY...

CITY           SKY/WX    TMP DP  RH WIND       PRES   REMARKS
JACKSON        CLOUDY    35  27  72 VRB6      30.09R WCI  30
LONDON         CLOUDY    38  27  64 W7        30.11R WCI  33
SOMERSET*      PTCLDY    34  27  75 W5        30.15S WCI  30
MONTICELLO*    CLEAR     34  28  79 W3        30.16S
WILLIAMSBURG*  MOCLDY    37  28  70 W5        30.12S WCI  34
MIDDLESBORO*   MOCLDY    40  28  62 W6        30.12R
HARLAN APT*    CLOUDY    37  28  70 SW7       30.09R WCI  32
PIKE CO APT*   CLOUDY    37  27  65 SW7       30.06S WCI  32
BIG SANDY APT* CLOUDY    39  29  67 W7G16     30.07R WCI  34
MOREHEAD APT*  FLURRIES  37  27  65 W7        30.11R WCI  32
$$

KYZ035-036-041-042-044-050-067-078-099-200000
...CENTRAL KENTUCKY...

CITY           SKY/WX    TMP DP  RH WIND       PRES   REMARKS
MT STERLING*   PTCLDY    34  28  80 NW10      30.12R WCI  26
DANVILLE*      CLEAR     34  27  75 W5        30.14R WCI  30
LEXINGTON      PTCLDY    33  25  72 W6        30.12R WCI  28
FRANKFORT      PTCLDY    36  24  62 W5        30.12R WCI  32
LOUISVILLE     PTCLDY    37  24  59 W9        30.15R WCI  30
LEBANON*         N/A     36  25  64 W9        30.15R WCI  29
GLASGOW*       CLEAR     37  24  59 W3        30.16R
BOWLING GREEN  CLEAR     40  22  48 NW5       30.18R
$$

KYZ091>093-OHZ055-061-077-WVZ005-015-034-035-042-200000
...SOUTHERN OHIO/WEST VIRGINIA...

CITY           SKY/WX    TMP DP  RH WIND       PRES   REMARKS
COVINGTON      PTCLDY    32  25  75 W6        30.08R WCI  26
COLUMBUS       CLOUDY    34  25  69 W22       30.02R WCI  22
DAYTON         CLOUDY    31  24  75 W16       30.07R WCI  20
WILMINGTON     CLOUDY    32  24  72 NW10      30.05R WCI  24
HUNTINGTON     CLOUDY    39  25  57 W8        30.06R WCI  33
CHARLESTON     MOCLDY    40  28  62 W12G20    30.02R WCI  33
PINEVILLE*     CLOUDY    37  29  73 MISG      30.06R
BECKLEY        CLOUDY    33  25  72 NW8G18    29.97R WCI  26
BLUEFIELD      CLOUDY    31  23  72 W16G23    29.97R WCI  20
LOGAN CO APT*  CLOUDY    37  27  65 VRB6G22   30.02R WCI  33
$$

VAZ002-007-008-TNZ017-027-036-066-071-200000
...SOUTHWEST VIRGINIA/EAST TENNESSEE...

CITY           SKY/WX    TMP DP  RH WIND       PRES   REMARKS
WISE*          CLOUDY    34  32  93 W7        30.04R WCI  28
JONESVILLE*    CLOUDY    39  27  60 W5        30.11R
ABINGDON*      CLOUDY    39  28  65 W7        30.04R WCI  34
BRISTOL        MOCLDY    40  29  64 W7        30.06R
MORRISTOWN*    PTCLDY    41  28  60 NW6G12    30.09R
SEVIERVILLE*   CLOUDY    45  30  57 W5        30.11R
KNOXVILLE      PTCLDY    43  29  57 NW7       30.11R
LAFOLLETTE*    PTCLDY    41  27  56 VRB6G12   30.16R
OAK RIDGE      CLEAR     42  29  59 CALM      30.13R
CROSSVILLE     CLEAR     38  25  59 NW7       30.11R WCI  33
NASHVILLE      CLEAR     41  21  44 N8        30.18R
$$

...KEY TO REMARKS...
VSB - VISIBILITY IN MILES
WCI - WIND CHILL INDEX
HX  - HEAT INDEX

$$




USA.gov is the U.S. government's official web portal to all federal, state and local government web resources and services.